Change the Weather History Date:

Friday, December 20, 2013

  Actual Average Record
Temperature  
Mean Temperature 35 °F -  
Max Temperature 37 °F 28 °F 44 °F (1945)
Min Temperature 33 °F 18 °F -23 °F (1957)
Degree Days  
Heating Degree Days 30    
Moisture  
Dew Point 35 °F    
Average Humidity 94    
Maximum Humidity 100    
Minimum Humidity 79    
Precipitation  
Precipitation 0.31 in - - ()
Sea Level Pressure  
Sea Level Pressure 29.55 in    
Wind  
Wind Speed 11 mph (ESE)    
Max Wind Speed 17 mph    
Max Gust Speed 24 mph    
Visibility 7 miles    
Events Rain , Snow    
Averages and records for this station are not official NWS values.
T = Trace of Precipitation, MM = Missing Value Source: NWS Daily Summary

Daily Weather History Graph

Daily Weather History Graph

Search for Another Location

Airport or City:

Trip Planner

Search our weather history database for the weather conditions in past years. The results will help you decide how hot, cold, wet, or windy it might be!

Date:

Astronomy

Dec. 20, 2013 Rise Set
Actual Time 10:18 AM AKST 4:16 PM AKST
Civil Twilight 9:21 AM AKST 5:13 PM AKST
Nautical Twilight 8:25 AM AKST 6:09 PM AKST
Astronomical Twilight 7:34 AM AKST 7:00 PM AKST
Moon 8:40 PM AKST (12/20) 11:29 AM AKST (12/20)
Length of Visible Light 7h 51m
Length of Day
5h 57m
Waning Gibbous, 89% of the Moon is Illuminated
Dec 20
Waning Gibbous
Dec 25
Last Quarter
Jan 1
New
Jan 7
First Quarter
Jan 15
Full

Hourly Weather History & Observations

Time (AKST) Temp. Windchill Dew Point Humidity Pressure Visibility Wind Dir Wind Speed Gust Speed Precip Events Conditions
12:53 AM 34.0 °F 27.2 °F 30.9 °F 89% 29.58 in 7.0 mi SE 8.1 mph - 0.00 in Snow Light Snow
1:23 AM 33.8 °F 25.8 °F 30.2 °F 87% 29.58 in 10.0 mi SE 10.4 mph - 0.01 in   Overcast
1:42 AM 35.6 °F 29.2 °F 32.0 °F 87% 29.58 in 10.0 mi ESE 8.1 mph - 0.01 in Rain Light Rain
1:53 AM 34.0 °F 27.2 °F 32.0 °F 92% 29.59 in 10.0 mi SE 8.1 mph - 0.01 in   Overcast
3:53 AM 34.0 °F 27.2 °F 32.0 °F 92% 29.59 in 2.5 mi ESE 8.1 mph - 0.00 in Snow Light Snow
4:02 AM 33.8 °F 27.7 °F 33.8 °F 100% 29.58 in 3.0 mi ESE 6.9 mph - 0.00 in Snow Light Snow
4:53 AM 35.1 °F 25.9 °F 32.0 °F 89% 29.58 in 9.0 mi East 13.8 mph 19.6 mph 0.00 in Snow Light Snow
5:28 AM 35.6 °F 28.6 °F 32.0 °F 87% 29.56 in 10.0 mi ESE 9.2 mph - 0.00 in   Overcast
5:53 AM 35.1 °F 27.4 °F 33.1 °F 92% 29.57 in 10.0 mi East 10.4 mph - 0.00 in   Overcast
6:53 AM 36.0 °F 26.7 °F 32.0 °F 86% 29.56 in 10.0 mi East 15.0 mph - N/A   Overcast
7:53 AM 37.0 °F 28.9 °F 32.0 °F 82% 29.55 in 10.0 mi East 12.7 mph 20.7 mph N/A   Overcast
8:53 AM 37.0 °F 28.1 °F 33.1 °F 86% 29.54 in 10.0 mi East 15.0 mph - N/A   Overcast
9:53 AM 37.0 °F 29.3 °F 34.0 °F 89% 29.54 in 10.0 mi East 11.5 mph 19.6 mph 0.00 in Rain Light Rain
10:53 AM 37.0 °F 28.1 °F 34.0 °F 89% 29.53 in 10.0 mi East 15.0 mph - 0.02 in Rain Light Rain
11:08 AM 37.4 °F 28.2 °F 35.6 °F 93% 29.52 in 7.0 mi East 16.1 mph - 0.00 in Rain Light Rain
11:53 AM 37.0 °F 28.1 °F 35.1 °F 93% 29.52 in 6.0 mi East 15.0 mph 23.0 mph 0.03 in Rain Rain
12:53 PM 37.0 °F 27.4 °F 36.0 °F 96% 29.52 in 7.0 mi East 17.3 mph 24.2 mph 0.04 in Rain Light Rain
1:53 PM 36.0 °F 28.5 °F 36.0 °F 100% 29.53 in 5.0 mi East 10.4 mph - 0.13 in Rain , Snow Rain
2:12 PM 35.6 °F 26.6 °F 35.6 °F 100% 29.52 in 3.0 mi East 13.8 mph - 0.03 in Rain , Snow Rain
2:36 PM 37.4 °F 28.5 °F 35.6 °F 93% 29.51 in 2.5 mi East 15.0 mph 23.0 mph 0.06 in Rain , Snow Rain
2:42 PM 37.4 °F 28.9 °F 35.6 °F 93% 29.51 in 2.0 mi East 13.8 mph - 0.07 in Rain , Snow Rain
2:53 PM 36.0 °F 27.1 °F 36.0 °F 100% 29.52 in 2.0 mi East 13.8 mph 20.7 mph 0.08 in Rain , Snow Rain
3:01 PM 37.4 °F 28.2 °F 37.4 °F 100% 29.51 in 1.5 mi East 16.1 mph 23.0 mph 0.01 in Rain , Snow Rain
3:14 PM 37.4 °F 28.5 °F 37.4 °F 100% 29.51 in 2.0 mi East 15.0 mph 21.9 mph 0.04 in Rain , Snow Rain
3:17 PM 37.4 °F 28.2 °F 37.4 °F 100% 29.51 in 3.0 mi East 16.1 mph 21.9 mph 0.04 in Rain Rain
3:27 PM 37.4 °F 28.2 °F 37.4 °F 100% 29.52 in 2.0 mi East 16.1 mph 24.2 mph 0.05 in Rain , Snow Rain
3:53 PM 37.0 °F 27.7 °F 36.0 °F 96% 29.52 in 2.5 mi East 16.1 mph 24.2 mph 0.07 in Rain , Snow Rain
4:53 PM 37.0 °F 28.1 °F 36.0 °F 96% 29.52 in 3.0 mi East 15.0 mph 21.9 mph 0.02 in Rain Rain
5:53 PM 37.0 °F 28.9 °F 37.0 °F 100% 29.54 in 4.0 mi ESE 12.7 mph 18.4 mph 0.01 in Rain Rain
6:53 PM 37.0 °F 29.8 °F 37.0 °F 100% 29.54 in 4.0 mi ESE 10.4 mph - 0.00 in Rain Rain
7:53 PM 36.0 °F 29.0 °F 36.0 °F 100% 29.56 in 4.0 mi SSE 9.2 mph - 0.03 in Rain Rain
8:53 PM 35.1 °F 27.4 °F 35.1 °F 100% 29.56 in 7.0 mi SSE 10.4 mph - 0.02 in Rain Light Rain
9:40 PM 35.6 °F 28.6 °F 35.6 °F 100% 29.55 in 10.0 mi SE 9.2 mph - 0.00 in Rain Rain
9:53 PM 35.1 °F 29.3 °F 35.1 °F 100% 29.57 in 10.0 mi SSE 6.9 mph - 0.01 in Rain Light Rain
10:18 PM 35.6 °F 29.2 °F 35.6 °F 100% 29.56 in 10.0 mi SE 8.1 mph - 0.00 in Rain Light Rain
10:36 PM 35.6 °F 29.9 °F 35.6 °F 100% 29.56 in 10.0 mi SE 6.9 mph - 0.00 in Rain Light Rain
10:53 PM 36.0 °F 31.1 °F 35.1 °F 97% 29.57 in 10.0 mi SSE 5.8 mph - 0.00 in   Overcast
11:53 PM 36.0 °F 31.1 °F 34.0 °F 93% 29.57 in 10.0 mi SSE 5.8 mph - N/A   Overcast